Flag for Germany Weather past 2 weeks in Heinsberg, North Rhine-Westphalia, Germany

Now
68 °F

Sunny.


Feels Like: 68 °F
Forecast: 49 / 65 °F
Wind: 2 mph from Northeast

Location: Geilenkirchen Airport

Current Time: May 22, 2015 at 6:16:09 PM

Latest Report: May 22, 2015 at 5:50 PM


Visibility: 10 mi

Pressure: 30.21 "Hg

Humidity: 43%

Dew point: 45 °F

Location of HeinsbergLocation

Historic Weather in Heinsberg — Graph

°F

Heinsberg temperature yesterday

Maximum temperature yesterday: 63 °F (at 1:50 PM)
Minimum temperature yesterday: 43 °F (at 1:50 AM)
Average temperature yesterday: 54 °F

Past Weeks' High & Low Weather Summary

 TemperatureHumidityPressure
High81 °F (May 11, 4:50 PM)100% (May 15, 12:50 AM)30.36 "Hg (May 15, 12:50 AM)
Low43 °F (May 18, 3:50 AM)30% (May 11, 4:50 PM)29.68 "Hg (May 18, 5:50 PM)
Average57 °F65%30.04 "Hg
* Reported May 7 4:50 PM — May 22 4:50 PM, Heinsberg, Weather by CustomWeather, © 2015

Note: Actual official high and low records may vary slightly from our data, if they occured in-between our weather recording intervals... More about our weather records

Advertising

Heinsberg weather history for previous 24 hours

 ConditionsComfort  
Time TempWeatherWind HumidityBarometerVisibility
4:50 PM
Fri, May 22
70 °FSunny.5 mph38%30.24 "Hg10 mi
3:50 PM68 °FSunny.6 mph43%30.24 "Hg10 mi
2:50 PM68 °FSunny.7 mph40%30.27 "Hg10 mi
1:50 PM66 °FSunny.6 mph43%30.30 "Hg10 mi
12:50 PM64 °FPartly sunny.9 mph46%30.30 "HgN/A
11:50 AM63 °FBroken clouds.7 mph49%30.33 "HgN/A
10:50 AM61 °FPartly sunny.7 mph52%30.33 "HgN/A
9:50 AM59 °FSunny.5 mph55%30.33 "Hg10 mi
8:50 AM57 °FSunny.5 mph63%30.33 "Hg10 mi
7:50 AM52 °FSunny.2 mph72%30.33 "Hg10 mi
6:50 AM50 °FSunny.2 mph76%30.33 "Hg10 mi
5:50 AM50 °FClear.5 mph76%30.33 "Hg10 mi
4:50 AM50 °FClear.1 mph76%30.33 "Hg10 mi
3:50 AM50 °FClear.1 mph76%30.33 "Hg10 mi
2:50 AM52 °FClear.1 mph72%30.36 "Hg10 mi
1:50 AM50 °FClear.1 mph76%30.36 "Hg10 mi
12:50 AM48 °FClear.No wind82%30.36 "Hg10 mi
11:50 PM
Thu, May 21
52 °FClear.2 mph72%30.36 "Hg10 mi
10:50 PM54 °FClear.5 mph67%30.36 "Hg10 mi
9:50 PM54 °FSunny.5 mph63%30.33 "Hg10 mi
8:50 PM61 °FPartly sunny.7 mph55%30.30 "HgN/A
7:50 PM59 °FPartly sunny.8 mph55%30.30 "HgN/A
6:50 PM61 °FScattered clouds.3 mph48%30.30 "HgN/A
Weather by CustomWeather, © 2015

See weather overviewHow to use our weather pages